Regional Weather Roundup
Issued by NWS

Home | Current Version | Previous Version | Graphics & Text | Print | Product List | Glossary On
Versions: 1 2 3 4 5 6 7 8 9 10 11 12 13 14 15 16 17 18 19 20 21 22 23 24 25 26 27 28 29 30 31 32 33 34 35 36 37 38 39 40 41 42 43 44 45 46 47 48 49 50
000
ASUS43 KDMX 262203
RWRIA

WEATHER ROUNDUP FOR IOWA
NATIONAL WEATHER SERVICE DES MOINES IA
500 PM CDT THU MAY 26 2016

NOTE: "FAIR" INDICATES FEW OR NO CLOUDS BELOW 12,000 FEET WITH NO
SIGNIFICANT WEATHER AND/OR OBSTRUCTIONS TO VISIBILITY.

* - THESE STATIONS ARE NOT NWS STATIONS...THUS NOT UNDER NWS
QUALITY CONTROL.  THEY ALSO DO NOT REPORT WEATHER SUCH
AS PRECIPITATION OR FOG.

IAZ001>003-012>014-020>022-031>034-043>046-262300-
   NORTHWEST IOWA

CITY           SKY/WX    TMP DP  RH WIND       PRES   REMARKS
CARROLL *      SUNNY     77  61  57 CALM      29.83R
CHEROKEE *     CLOUDY    73  59  60 N6        29.78F
DENISON *      MOSUNNY   75  59  57 SE8       29.78R
LE MARS *      CLOUDY    75  59  57 NE7       29.78F
ORANGE CITY *  SUNNY     75  55  50 CALM      29.80F
SHELDON *      CLOUDY    75  57  53 N8        29.80F
SIOUX CITY     CLOUDY    77  58  51 NE12      29.73F
SPENCER        CLOUDY    76  54  46 N6        29.80F
STORM LAKE *   SUNNY     77  55  47 NE6       29.82S
$$

IAZ055>058-069>071-079>083-090>094-262300-
   SOUTHWEST IOWA

CITY           SKY/WX    TMP DP  RH WIND       PRES   REMARKS
ATLANTIC *     HVY RAIN  68  64  88 S25       29.83R VSB 3/4
AUDUBON *      LGT RAIN  73  64  73 N5        29.84R
CLARINDA *       N/A     70  66  88 MISG      29.83S
COUNCIL BLFS * CLOUDY    66  63  88 SE20G25   29.82R FOG
CRESTON *      LGT RAIN  72  66  83 S6        29.86R
HARLAN  *      CLOUDY    70  63  78 S20G31    29.89R
LAMONI         LGT RAIN  69  66  90 SW8       29.87R
RED OAK *      LGT RAIN  64  61  88 NW15      29.87R
SHENANDOAH *   LGT RAIN  66  63  88 NE20      29.82R
$$

IAZ047>049-059>061-072>074-084-262300-
   CENTRAL IOWA

CITY           SKY/WX    TMP DP  RH WIND       PRES   REMARKS
AMES           CLOUDY    77  62  59 E3        29.81R
ANKENY *       CLOUDY    75  68  78 SE6       29.82R
BOONE *        SUNNY     77  64  65 E8        29.82R
CHARITON *     SUNNY     75  66  73 SW3       29.83R
DES MOINES     CLOUDY    76  65  68 SE6       29.85R
GRINNELL*      CLOUDY    77  63  61 E5        29.82R
KNOXVILLE *    CLOUDY    77  66  69 CALM      29.82R
MARSHALLTOWN   CLOUDY    77  62  59 SE6       29.82R
NEWTON *       CLOUDY    77  66  69 SE5       29.81R
PERRY *          N/A     77  63  61 CALM      29.82R
$$

IAZ004>006-015-016-023>025-035-036-262300-
   NORTH CENTRAL IOWA

CITY           SKY/WX    TMP DP  RH WIND       PRES   REMARKS
ALGONA *       SUNNY     79  52  38 CALM      29.82S
CLARION *      SUNNY     79  61  53 E5        29.82F HX  80
ESTHERVILLE    PTSUNNY   76  52  43 NW3       29.81S
FORT DODGE *   CLOUDY    75  59  57 E7        29.83R
MASON CITY     CLOUDY    80  59  48 CALM      29.83S HX  81
FOREST CITY *  SUNNY     77  55  47 CALM      29.82F
WEBSTER CITY * CLOUDY    77  63  61 NE3       29.81R
IOWA FALLS *     N/A     79  57  47 CALM      29.84R HX  80
$$

IAZ007>011-017>019-026>030-037>042-050>054-066-262300-
   NORTHEAST IOWA

CITY           SKY/WX    TMP DP  RH WIND       PRES   REMARKS
CEDAR RAPIDS   MOSUNNY   81  63  54 E5        29.80F HX  82
CHARLES CITY * SUNNY     79  57  47 CALM      29.83R HX  80
CLINTON *      CLOUDY    84  64  50 S7        29.81  HX  85
DECORAH *      SUNNY     79  57  47 VRB3G12   29.81F HX  80
DUBUQUE        MOSUNNY   83  55  38 NW7       29.82F HX  82
MONTICELLO *   MOSUNNY   84  55  37 NW6       29.80S HX  83
OELWEIN *      CLOUDY    81  57  44 CALM      29.82S HX  81
WATERLOO       CLOUDY    80  59  48 CALM      29.79F HX  81
$$

IAZ064-065-067-068-078-262300-
   EAST CENTRAL IOWA

CITY           SKY/WX    TMP DP  RH WIND       PRES   REMARKS
DAVENPORT      MOSUNNY   84  64  50 S9        29.81F HX  85
IOWA CITY      CLOUDY    83  62  49 S3        29.81F HX  84
MT. PLEASANT * PTSUNNY   86  64  48 SE12      29.81S HX  87
MUSCATINE *    CLOUDY    86  59  39 SW6       29.80R HX  85
QUAD CITIES    CLOUDY    88  64  44 CALM      29.80F HAZE    HX  89
$$

IAZ062-063-075>077-085>089-095>099-262300-
   SOUTHEAST IOWA

CITY           SKY/WX    TMP DP  RH WIND       PRES   REMARKS
BURLINGTON     PTSUNNY   81  67  62 S10       29.81F HX  83
FAIRFIELD *      N/A    N/A N/A N/A MISG        N/A
FORT MADISON * CLOUDY    82  66  57 S8        29.82F HX  85
KEOKUK *       MOSUNNY   81  66  61 E9        29.80F HX  83
OSKALOOSA *      N/A     82  63  51 E3        29.80R HX  83
OTTUMWA        CLOUDY    80  64  58 S12       29.81R HX  82
WASHINGTON *   SUNNY     84  75  74 S9        29.81S HX  92
$$

ABBREVIATIONS USED IN REMARKS
   TC - TEMPERATURES IN CELSIUS
  WCI - WIND CHILL INDEX
   HX - HEAT INDEX
  VSB - VISIBILITY
$$




USA.gov is the U.S. government's official web portal to all federal, state and local government web resources and services.